Zurück zum Katalog

ELEKTRON 3

AktivWissenschaftHEO
NORAD 829·PAYLOAD·🇷🇺 Russia

Gestartet Jul 10, 1964 von Baikonur Cosmodrome

Loading…

Nächste Überflüge (nächste 24 Stunden)

TLE

AktuellSource: Space-Track

Epoche: Sep 13, 2026, 21:05 UTC

1   829U 64038A   26256.87858086  .00000682  00000-0  19824-3 0  9994
2   829  60.8031  77.9286 2938076  12.9648 353.2568  9.21539341 23625

Verfolge ELEKTRON 3 in Echtzeit mit AllMySat

Download on the App Store